DW2489 Weather Reports


Display with metric or nautical units.
time (UTC)temp
F
wind
direction
speed
MPH
gust
MPH
rain 1hr
in
rain 24hr
in
rain mn
in
humidity
%
barometer
mb
20201128160024 49 279 5.0 12.0 0.00 0.00 0.00 67 1013.3
20201128155519 48 276 4.0 15.0 0.00 0.00 0.00 68 1013.6
20201128155018 47 262 5.0 15.0 0.00 0.00 0.00 70 1013.3
20201128154523 47 286 3.0 16.0 0.00 0.00 0.00 70 1013.6
20201128154022 47 303 6.0 16.0 0.00 0.00 0.00 69 1013.6
20201128153520 48 291 5.0 16.0 0.00 0.00 0.00 70 1014.0
20201128153017 48 285 4.0 9.0 0.00 0.00 0.00 70 1014.0
20201128152515 49 268 4.0 10.0 0.00 0.00 0.00 71 1014.0
20201128152016 49 281 5.0 10.0 0.00 0.00 0.00 72 1014.0
20201128151520 49 206 4.0 7.0 0.00 0.00 0.00 74 1014.0
20201128151018 48 251 4.0 7.0 0.00 0.00 0.00 75 1014.0
20201128150515 48 269 4.0 9.0 0.00 0.00 0.00 76 1013.6
20201128150022 48 257 5.0 9.0 0.00 0.00 0.00 77 1013.6
20201128145512 47 251 2.0 7.0 0.00 0.00 0.00 78 1013.6
20201128145026 47 201 1.0 10.0 0.00 0.00 0.00 80 1013.6
20201128144511 46 223 4.0 10.0 0.00 0.00 0.00 82 1013.6
20201128144009 45 242 2.0 6.0 0.00 0.00 0.00 85 1013.6
20201128143513 44 239 1.0 6.0 0.00 0.00 0.00 86 1013.6
20201128143016 44 258 1.0 5.0 0.00 0.00 0.00 86 1013.6
20201128142510 43 260 1.0 3.0 0.00 0.00 0.00 87 1013.6
20201128142018 43 260 0.0 5.0 0.00 0.00 0.00 87 1013.2
20201128141507 43 264 0.0 5.0 0.00 0.00 0.00 87 1013.6
20201128141023 43 264 0.0 6.0 0.00 0.00 0.00 87 1013.6
20201128140511 43 260 1.0 6.0 0.00 0.00 0.00 88 1013.9
20201128140009 43 231 1.0 6.0 0.00 0.00 0.00 88 1013.6
20201128135508 42 243 0.0 5.0 0.00 0.00 0.00 89 1013.6
20201128135004 42 226 1.0 5.0 0.00 0.00 0.00 89 1013.6
20201128134457 42 226 0.0 5.0 0.00 0.00 0.00 89 1013.6
20201128133956 42 256 1.0 5.0 0.00 0.00 0.00 89 1013.6
20201128133454 42 227 0.0 2.0 0.00 0.00 0.00 89 1013.6
20201128132950 42 211 0.0 2.0 0.00 0.00 0.00 89 1013.9
20201128132444 42 211 0.0 2.0 0.00 0.00 0.00 89 1013.6
20201128131940 42 211 0.0 2.0 0.00 0.00 0.00 89 1013.6
20201128131428 42 211 0.0 3.0 0.00 0.00 0.00 90 1013.6
20201128130918 42 211 0.0 3.0 0.00 0.00 0.00 89 1013.9
20201128130413 42 211 0.0 3.0 0.00 0.00 0.00 89 1013.6
20201128125911 42 211 0.0 2.0 0.00 0.00 0.00 89 1013.9
20201128125406 42 211 0.0 2.0 0.00 0.00 0.00 89 1013.9
20201128124903 41 211 0.0 2.0 0.00 0.00 0.00 89 1013.9
20201128124400 41 211 0.0 2.0 0.00 0.00 0.00 89 1013.6
20201128123857 41 211 0.0 0.0 0.00 0.00 0.00 89 1013.6
20201128123355 41 211 0.0 0.0 0.00 0.00 0.00 89 1013.6
20201128122853 41 211 0.0 0.0 0.00 0.00 0.00 89 1013.6
20201128122356 41 211 0.0 2.0 0.00 0.00 0.00 89 1013.6
20201128121849 41 211 0.0 2.0 0.00 0.00 0.00 89 1013.6
20201128121349 41 201 0.0 2.0 0.00 0.00 0.00 89 1013.6
20201128120846 41 189 0.0 2.0 0.00 0.00 0.00 89 1013.6
20201128120332 41 237 0.0 0.0 0.00 0.00 0.00 89 1013.6
20201128115829 41 239 0.0 0.0 0.00 0.00 0.00 89 1013.6
20201128115327 41 239 0.0 0.0 0.00 0.00 0.00 89 1013.6
20201128114840 41 239 0.0 0.0 0.00 0.00 0.00 89 1013.6
20201128114317 41 239 0.0 0.0 0.00 0.00 0.00 89 1013.6
20201128113807 42 239 0.0 0.0 0.00 0.00 0.00 89 1013.6
20201128113309 42 239 0.0 0.0 0.00 0.00 0.00 89 1013.6
20201128112801 42 239 0.0 0.0 0.00 0.00 0.00 89 1013.6
20201128112257 42 239 0.0 0.0 0.00 0.00 0.00 89 1013.6
20201128111756 42 239 0.0 0.0 0.00 0.00 0.00 89 1013.9
20201128111253 42 239 0.0 0.0 0.00 0.00 0.00 89 1013.9
20201128110751 42 239 0.0 0.0 0.00 0.00 0.00 89 1013.6
20201128110248 42 239 0.0 2.0 0.00 0.00 0.00 88 1013.6
20201128105745 42 239 0.0 2.0 0.00 0.00 0.00 88 1013.6
20201128105226 42 243 0.0 2.0 0.00 0.00 0.00 88 1013.6
20201128104720 42 249 0.0 2.0 0.00 0.00 0.00 88 1013.6
20201128104147 42 252 0.0 2.0 0.00 0.00 0.00 88 1013.6
20201128103645 42 252 0.0 2.0 0.00 0.00 0.00 88 1013.6
20201128103145 42 252 0.0 0.0 0.00 0.00 0.00 88 1013.6
20201128102640 42 252 0.0 0.0 0.00 0.00 0.00 88 1013.6
20201128102124 42 252 0.0 0.0 0.00 0.00 0.00 88 1013.6
20201128101621 42 252 0.0 0.0 0.00 0.00 0.00 88 1013.6
20201128101110 42 252 0.0 0.0 0.00 0.00 0.00 88 1013.2
20201128100606 42 252 0.0 0.0 0.00 0.00 0.00 88 1013.6
20201128100101 42 252 0.0 0.0 0.00 0.00 0.00 88 1013.6
20201128095538 42 252 0.0 0.0 0.00 0.00 0.00 88 1013.2
20201128095025 42 252 0.0 2.0 0.00 0.00 0.00 88 1013.2
20201128094524 42 252 0.0 3.0 0.00 0.00 0.00 88 1013.2
20201128094020 42 252 0.0 3.0 0.00 0.00 0.00 88 1013.2
20201128093517 42 252 0.0 2.0 0.00 0.00 0.00 88 1013.2
20201128093014 42 252 0.0 3.0 0.00 0.00 0.00 88 1013.2
20201128092512 42 260 0.0 3.0 0.00 0.00 0.00 89 1013.2
20201128092016 42 271 0.0 3.0 0.00 0.00 0.00 89 1013.2
20201128091514 42 271 0.0 3.0 0.00 0.00 0.00 89 1013.2
20201128091008 42 271 0.0 2.0 0.00 0.00 0.00 89 1013.2
20201128090450 42 271 0.0 3.0 0.00 0.00 0.00 89 1012.9
20201128085947 42 271 0.0 5.0 0.00 0.00 0.00 89 1013.2
20201128085445 42 271 1.0 5.0 0.00 0.00 0.00 89 1013.2
20201128084943 42 271 0.0 5.0 0.00 0.00 0.00 89 1013.2
20201128084440 42 264 1.0 5.0 0.00 0.00 0.00 89 1013.2
20201128083939 42 290 0.0 3.0 0.00 0.00 0.00 89 1013.2
20201128083434 42 290 0.0 3.0 0.00 0.00 0.00 89 1013.2
20201128082932 42 297 0.0 3.0 0.00 0.00 0.00 89 1013.2
20201128082428 42 297 0.0 2.0 0.00 0.00 0.00 89 1013.2
20201128081926 42 297 0.0 2.0 0.00 0.00 0.00 89 1013.2
20201128081420 42 297 0.0 0.0 0.00 0.00 0.00 89 1013.2
20201128080918 42 297 0.0 2.0 0.00 0.00 0.00 89 1013.2
20201128080414 42 297 0.0 2.0 0.00 0.00 0.00 89 1013.6
20201128075912 42 297 0.0 2.0 0.00 0.00 0.00 89 1013.6
20201128075409 42 299 0.0 2.0 0.00 0.00 0.00 89 1013.6
20201128074907 42 299 0.0 2.0 0.00 0.00 0.00 89 1013.6
20201128074404 42 299 0.0 0.0 0.00 0.00 0.00 89 1013.6
20201128073901 42 299 0.0 0.0 0.00 0.00 0.00 89 1013.6
20201128073358 42 299 0.0 0.0 0.00 0.00 0.00 89 1013.6
20201128072856 42 299 0.0 0.0 0.00 0.00 0.00 89 1013.6
20201128072353 42 299 0.0 3.0 0.00 0.00 0.00 89 1013.6
20201128071851 42 299 0.0 3.0 0.00 0.00 0.00 89 1013.6
20201128071350 42 299 0.0 3.0 0.00 0.00 0.00 89 1013.6
20201128070847 42 299 0.0 2.0 0.00 0.00 0.00 89 1013.6
20201128070342 42 299 0.0 3.0 0.00 0.00 0.00 89 1013.6
20201128065840 42 299 0.0 3.0 0.00 0.00 0.00 89 1013.6
20201128065337 42 299 0.0 3.0 0.00 0.00 0.00 89 1013.9
20201128064835 42 299 0.0 2.0 0.00 0.00 0.00 88 1013.9
20201128064331 42 299 0.0 0.0 0.00 0.00 0.00 88 1013.9
20201128063829 42 299 0.0 2.0 0.00 0.00 0.00 88 1013.9
20201128063330 42 299 0.0 2.0 0.00 0.00 0.00 88 1013.9
20201128062824 42 299 0.0 2.0 0.00 0.00 0.00 88 1013.9
20201128062325 42 314 0.0 0.0 0.00 0.00 0.00 88 1013.9
20201128061820 42 315 0.0 0.0 0.00 0.00 0.00 88 1013.9
20201128061321 42 318 0.0 0.0 0.00 0.00 0.00 88 1013.9
20201128060815 42 318 0.0 0.0 0.00 0.00 0.00 88 1013.9
20201128060312 42 318 0.0 0.0 0.00 0.00 0.00 88 1014.2
20201128055804 42 318 0.0 0.0 0.00 0.00 0.00 88 1014.2
20201128055306 42 318 0.0 0.0 0.00 0.00 0.00 88 1014.2
20201128054803 42 318 0.0 0.0 0.00 0.00 0.00 88 1014.2
20201128054303 42 319 0.0 0.0 0.00 0.00 0.00 88 1014.2
20201128053755 42 318 0.0 0.0 0.00 0.00 0.00 88 1014.2
20201128053257 42 318 0.0 0.0 0.00 0.00 0.00 88 1014.2
20201128052755 42 318 0.0 0.0 0.00 0.00 0.00 88 1014.2
20201128052253 42 318 0.0 0.0 0.00 0.00 0.00 88 1014.2
20201128051745 42 318 0.0 0.0 0.00 0.00 0.00 88 1014.2
20201128051244 42 318 0.0 0.0 0.00 0.00 0.00 88 1014.6
20201128050755 42 318 0.0 0.0 0.00 0.00 0.00 88 1014.6
20201128050249 42 318 0.0 0.0 0.00 0.00 0.00 88 1014.6
20201128045730 42 318 0.0 2.0 0.00 0.00 0.00 88 1014.6
20201128045221 42 318 0.0 2.0 0.00 0.00 0.00 88 1014.6
20201128044724 42 318 0.0 2.0 0.00 0.00 0.00 88 1014.6
20201128044205 42 334 0.0 0.0 0.00 0.00 0.00 88 1014.6
20201128043701 42 306 0.0 0.0 0.00 0.00 0.00 88 1014.6
20201128043159 42 289 0.0 0.0 0.00 0.00 0.00 88 1014.9
20201128042657 42 290 0.0 0.0 0.00 0.00 0.00 88 1014.9
20201128042154 42 289 0.0 0.0 0.00 0.00 0.00 88 1014.9
20201128041658 42 289 0.0 0.0 0.00 0.00 0.00 88 1014.9
20201128041152 42 289 0.0 2.0 0.00 0.00 0.00 88 1015.3
20201128040650 42 289 0.0 3.0 0.00 0.00 0.00 88 1015.3
20201128040154 42 289 0.0 3.0 0.00 0.00 0.00 88 1015.3
20201128035642 42 290 0.0 3.0 0.00 0.00 0.00 88 1014.9
20201128035137 42 289 0.0 0.0 0.00 0.00 0.00 88 1014.9
20201128034631 42 289 0.0 0.0 0.00 0.00 0.00 88 1014.9
20201128034125 42 289 0.0 0.0 0.00 0.00 0.00 87 1014.9
20201128033620 42 289 0.0 0.0 0.00 0.00 0.00 87 1014.9
20201128033117 42 289 0.0 0.0 0.00 0.00 0.00 87 1014.9
20201128032611 42 289 0.0 0.0 0.00 0.00 0.00 87 1014.9
20201128032102 42 289 0.0 0.0 0.00 0.00 0.00 87 1014.9
20201128031615 42 289 0.0 0.0 0.00 0.00 0.00 87 1014.9
20201128031057 42 289 0.0 0.0 0.00 0.00 0.00 87 1014.9
20201128030554 42 290 0.0 0.0 0.00 0.00 0.00 87 1015.3
20201128030054 42 286 0.0 0.0 0.00 0.00 0.00 87 1015.3
20201128025540 42 286 0.0 0.0 0.00 0.00 0.00 87 1015.3
20201128025027 42 286 0.0 0.0 0.00 0.00 0.00 87 1015.3
20201128024524 42 286 0.0 0.0 0.00 0.00 0.00 87 1015.3
20201128024028 42 286 0.0 0.0 0.00 0.00 0.00 87 1015.3
20201128023522 43 286 0.0 0.0 0.00 0.00 0.00 86 1015.3
20201128023010 43 286 0.0 0.0 0.00 0.00 0.00 86 1015.3
20201128022459 43 286 0.0 0.0 0.00 0.00 0.00 86 1015.3
20201128021957 43 286 0.0 0.0 0.00 0.00 0.00 86 1015.6
20201128021450 43 286 0.0 0.0 0.00 0.00 0.00 86 1015.6
20201128020947 43 286 0.0 0.0 0.00 0.00 0.00 86 1015.6
20201128020427 43 286 0.0 0.0 0.00 0.00 0.00 86 1015.6
20201128015928 43 286 0.0 0.0 0.00 0.00 0.00 86 1015.6
20201128015405 43 286 0.0 0.0 0.00 0.00 0.00 86 1015.6
20201128014902 43 286 0.0 0.0 0.00 0.00 0.00 86 1015.6
20201128014359 44 286 0.0 0.0 0.00 0.00 0.00 86 1015.6
20201128013802 44 286 0.0 0.0 0.00 0.00 0.00 86 1015.6
20201128013259 44 286 0.0 2.0 0.00 0.00 0.00 86 1015.6
20201128012757 44 286 0.0 2.0 0.00 0.00 0.00 86 1015.6
20201128012225 44 274 0.0 2.0 0.00 0.00 0.00 86 1015.6
20201128011724 44 270 0.0 0.0 0.00 0.00 0.00 86 1015.6
20201128011220 44 313 0.0 0.0 0.00 0.00 0.00 86 1015.6
20201128010729 44 312 0.0 0.0 0.00 0.00 0.00 85 1015.6
20201128010218 44 312 0.0 0.0 0.00 0.00 0.00 85 1015.6
20201128005715 44 313 0.0 0.0 0.00 0.00 0.00 85 1015.6
20201128005152 44 313 0.0 0.0 0.00 0.00 0.00 85 1015.6
20201128004649 44 312 0.0 0.0 0.00 0.00 0.00 85 1015.6
20201128004147 44 313 0.0 0.0 0.00 0.00 0.00 85 1015.6
20201128003641 44 312 0.0 0.0 0.00 0.00 0.00 85 1015.6
20201128003142 44 313 0.0 0.0 0.00 0.00 0.00 85 1015.6
20201128002637 44 313 0.0 0.0 0.00 0.00 0.00 85 1015.6
20201128002113 44 313 0.0 0.0 0.00 0.00 0.00 84 1015.6
20201128001604 45 313 0.0 0.0 0.00 0.00 0.00 84 1015.3
20201128001102 45 313 0.0 0.0 0.00 0.00 0.00 84 1015.7
20201128000600 45 313 0.0 0.0 0.00 0.00 0.00 84 1015.7
20201128000102 45 313 0.0 0.0 0.00 0.00 0.00 84 1015.7
20201127235554 45 312 0.0 2.0 0.00 0.00 0.00 83 1015.7
20201127235101 45 312 0.0 2.0 0.00 0.00 0.00 82 1015.7
20201127234545 45 312 0.0 2.0 0.00 0.00 0.00 82 1015.7
20201127234044 45 313 0.0 0.0 0.00 0.00 0.00 82 1015.7
20201127233542 45 312 0.0 0.0 0.00 0.00 0.00 82 1015.7
20201127233043 45 312 0.0 0.0 0.00 0.00 0.00 82 1015.7
20201127232540 45 313 0.0 2.0 0.00 0.00 0.00 81 1015.7
20201127232023 45 313 0.0 2.0 0.00 0.00 0.00 81 1015.7
20201127231522 45 313 0.0 2.0 0.00 0.00 0.00 81 1015.7
20201127231022 45 312 0.0 0.0 0.00 0.00 0.00 81 1015.7
20201127230515 45 312 0.0 0.0 0.00 0.00 0.00 81 1015.7
20201127230022 45 313 0.0 2.0 0.00 0.00 0.00 81 1015.7
20201127225518 45 313 0.0 3.0 0.00 0.00 0.00 81 1016.0
20201127225019 45 313 0.0 3.0 0.00 0.00 0.00 81 1016.0
20201127224455 45 313 0.0 2.0 0.00 0.00 0.00 81 1016.0
20201127223956 46 313 0.0 2.0 0.00 0.00 0.00 81 1015.7
20201127223452 46 295 0.0 2.0 0.00 0.00 0.00 81 1015.7
20201127222950 46 287 0.0 2.0 0.00 0.00 0.00 81 1015.7
20201127222453 46 270 1.0 2.0 0.00 0.00 0.00 81 1016.0
20201127222158 46 270 0.0 0.0 0.00 0.00 0.00 81 1016.0
20201127221658 46 270 0.0 0.0 0.00 0.00 0.00 81 1016.0
20201127220906 47 270 0.0 1.0 0.00 0.01 0.01 80 1015.1
20201127220408 47 270 0.0 3.0 0.00 0.01 0.01 80 1015.2
20201127215905 47 270 0.0 3.0 0.00 0.01 0.01 81 1015.2
20201127215405 47 270 1.0 3.0 0.00 0.01 0.01 81 1015.2
20201127214904 47 270 0.0 0.0 0.00 0.01 0.01 81 1015.2
20201127214409 47 270 0.0 0.0 0.00 0.01 0.01 80 1015.2
20201127213905 47 270 0.0 0.0 0.00 0.01 0.01 80 1015.2
20201127213405 48 270 0.0 0.0 0.00 0.01 0.01 80 1015.2
20201127212905 48 270 0.0 0.0 0.00 0.01 0.01 79 1015.2
20201127212405 48 270 0.0 0.0 0.00 0.01 0.01 79 1015.1
20201127211907 48 270 0.0 0.0 0.00 0.01 0.01 79 1015.1
20201127211405 48 270 0.0 1.0 0.00 0.01 0.01 79 1014.9
20201127210905 48 270 0.0 1.0 0.00 0.01 0.01 79 1015.0
20201127210404 48 270 1.0 1.0 0.00 0.01 0.01 79 1014.9
20201127205905 49 270 0.0 1.0 0.00 0.01 0.01 79 1015.0
20201127205405 49 270 0.0 1.0 0.00 0.01 0.01 79 1015.0
20201127204906 49 270 0.0 1.0 0.00 0.01 0.01 78 1014.9
20201127204404 49 272 0.0 1.0 0.00 0.01 0.01 78 1014.9
20201127203908 49 271 0.0 0.0 0.00 0.01 0.01 78 1014.9
20201127203405 49 261 0.0 1.0 0.00 0.01 0.01 78 1015.0
20201127202905 49 261 0.0 1.0 0.00 0.01 0.01 77 1015.0
20201127202406 49 261 0.0 1.0 0.00 0.01 0.01 77 1015.1
20201127201910 49 261 0.0 1.0 0.00 0.01 0.01 77 1015.1
20201127201405 49 261 0.0 1.0 0.00 0.01 0.01 77 1015.1
20201127200905 49 261 0.0 1.0 0.00 0.01 0.01 76 1015.2
20201127200406 49 261 0.0 1.0 0.00 0.01 0.01 77 1015.2
20201127195905 49 261 0.0 1.0 0.00 0.01 0.01 77 1015.1
20201127195406 49 261 0.0 1.0 0.00 0.01 0.01 76 1015.0
20201127194905 49 261 0.0 3.0 0.00 0.01 0.01 77 1015.1
20201127194405 49 261 0.0 5.0 0.00 0.01 0.01 76 1015.1
20201127193904 49 261 3.0 5.0 0.00 0.01 0.01 76 1015.1
20201127193405 49 254 0.0 3.0 0.00 0.01 0.01 77 1015.2
20201127192909 50 252 0.0 3.0 0.00 0.01 0.01 77 1015.2
20201127192404 50 252 1.0 3.0 0.00 0.01 0.01 77 1015.3
20201127191906 50 252 0.0 3.0 0.00 0.01 0.01 77 1015.4
20201127191405 50 252 0.0 5.0 0.00 0.01 0.01 77 1015.4
20201127190905 50 252 0.0 6.0 0.00 0.01 0.01 77 1015.3
20201127190406 50 251 3.0 6.0 0.00 0.01 0.01 77 1015.5
20201127185906 50 260 4.0 6.0 0.00 0.01 0.01 77 1015.5
20201127185405 50 252 1.0 5.0 0.00 0.01 0.01 77 1015.6
20201127184906 50 271 1.0 5.0 0.00 0.01 0.01 77 1015.6
20201127184407 50 256 0.0 5.0 0.00 0.01 0.01 77 1015.7
20201127183905 50 256 1.0 5.0 0.00 0.01 0.01 77 1015.7
20201127183405 50 255 1.0 6.0 0.00 0.01 0.01 76 1015.7
20201127182908 50 254 1.0 6.0 0.00 0.01 0.01 77 1015.8
20201127182405 50 254 1.0 6.0 0.00 0.01 0.01 77 1015.8
20201127181906 50 274 2.0 6.0 0.00 0.01 0.01 77 1015.9
20201127181406 50 263 2.0 6.0 0.00 0.01 0.01 77 1015.9
20201127180909 50 268 0.0 5.0 0.00 0.01 0.01 77 1015.9
20201127180404 50 268 1.0 5.0 0.00 0.01 0.01 77 1016.0
20201127175905 50 261 0.0 5.0 0.00 0.01 0.01 78 1016.0
20201127175405 50 261 1.0 7.0 0.00 0.01 0.01 78 1015.9
20201127174905 50 262 1.0 7.0 0.00 0.01 0.01 78 1016.1
20201127174408 50 275 1.0 7.0 0.00 0.01 0.01 78 1015.9
20201127173906 50 207 0.0 5.0 0.00 0.01 0.01 78 1016.0
20201127173411 50 207 1.0 6.0 0.00 0.01 0.01 78 1016.1
20201127172906 50 207 3.0 6.0 0.00 0.01 0.01 78 1016.0
20201127172405 50 214 1.0 3.0 0.00 0.01 0.01 79 1016.0
20201127171907 50 214 0.0 3.0 0.00 0.01 0.01 79 1016.1
20201127171405 50 214 1.0 3.0 0.00 0.01 0.01 79 1016.1
20201127170904 50 212 0.0 5.0 0.00 0.01 0.01 79 1016.1
20201127170404 50 212 2.0 5.0 0.00 0.01 0.01 79 1016.3
20201127165905 50 271 0.0 3.0 0.00 0.01 0.01 79 1016.4
20201127165405 50 264 0.0 3.0 0.00 0.01 0.01 80 1016.5
20201127164905 50 264 0.0 3.0 0.00 0.01 0.01 79 1016.6
20201127164404 50 264 0.0 1.0 0.00 0.02 0.01 79 1016.7
20201127163908 50 264 0.0 1.0 0.00 0.03 0.01 79 1016.7
20201127163406 50 264 0.0 3.0 0.00 0.04 0.01 80 1016.8
20201127162906 50 264 0.0 3.0 0.00 0.04 0.01 81 1016.9
20201127162405 50 264 0.0 3.0 0.00 0.05 0.01 81 1017.0
20201127161905 50 264 1.0 3.0 0.00 0.05 0.01 81 1017.2
20201127161404 50 264 1.0 1.0 0.00 0.05 0.01 82 1017.2
20201127160905 50 264 0.0 5.0 0.00 0.05 0.01 82 1017.2